Location: Newark
(51.2625°N, 13.3939°E)
Time: 12:55:08
(UTC+00:00)

Vanguard 1 Rocket - Visible Passes

Search period start: 12 November 2019 00:00
Search period end: 22 November 2019 00:00
Orbit: 651 x 4225 km, 34.3° (Epoch: 11 November)

Date Brightness Start Highest point End Pass type
(mag) Time Alt. Az. Time Alt. Az. Time Alt. Az.
12 Nov 9.6 05:19:27 10° SSW 05:23:25 19° SSE 05:28:52 10° ESE visible
13 Nov 9.6 04:10:57 10° S 04:13:00 12° SSE 04:15:20 10° SE visible
14 Nov 9.5 05:22:14 10° SSW 05:26:01 18° SSE 05:31:06 10° SE visible
15 Nov 9.4 04:13:15 10° S 04:15:32 13° SSE 04:18:10 10° SE visible
16 Nov 9.4 05:25:12 10° SSW 05:28:40 17° S 05:33:10 10° SE visible
17 Nov 9.3 04:15:50 10° SSW 04:18:08 13° SSE 04:20:45 10° SE visible
18 Nov 9.4 05:28:23 10° SSW 05:31:21 15° S 05:35:01 10° SSE visible
19 Nov 9.2 04:18:41 10° SSW 04:20:47 13° S 04:23:06 10° SSE visible
20 Nov 9.5 05:31:57 10° SSW 05:34:03 12° S 05:36:28 10° SSE visible
21 Nov 9.2 04:21:53 10° SSW 04:23:26 11° S 04:25:08 10° SSE visible
